Location: Red Deer
(52.2681°N, 113.8112°W)
Time: 00:43:22
(UTC-06:00)

QB50P2 - Pass Details

Date: 22 May 2022
Orbit: 589 x 607 km, 97.9° (Epoch: 27 June)

Event Time Altitude Azimuth Distance (km) Brightness Sun altitude
Rises 03:04:21 0° 15° (NNE) 2,842 ? -14.6°
Reaches altitude 10° 03:06:32 10° 16° (NNE) 1,933 ? -14.4°
Maximum altitude 03:10:44 79° 104° (ESE) 607 ? -14.2°
Enters shadow 03:13:20 22° 189° (S) 1,289 ? -14.0°
